| time (UTC) | temp F | wind direction | speed MPH | gust MPH | rain 1hr in | rain 24hr in | rain mn in | humidity % | barometer mb |
| 20260509033021 | 65 | 313 | 0.0 | 5.0 | 0.00 | 0.00 | 0.00 | 81 | 1010.1 |
| 20260509031621 | 66 | 313 | 1.0 | 5.0 | 0.00 | 0.00 | 0.00 | 79 | 1009.9 |
| 20260509030023 | 67 | 346 | 1.0 | 6.0 | 0.00 | 0.00 | 0.00 | 76 | 1009.8 |
| 20260509024520 | 68 | 355 | 0.0 | 7.0 | 0.00 | 0.00 | 0.00 | 74 | 1009.6 |
| 20260509023020 | 69 | 360 | 2.0 | 6.0 | 0.00 | 0.00 | 0.00 | 73 | 1009.4 |
| 20260509021521 | 70 | 28 | 3.0 | 8.0 | 0.00 | 0.00 | 0.00 | 70 | 1009.2 |
| 20260509020034 | 72 | 19 | 4.0 | 8.0 | 0.00 | 0.00 | 0.00 | 68 | 1009.1 |
| 20260509014534 | 74 | 17 | 3.0 | 8.0 | 0.00 | 0.00 | 0.00 | 64 | 1009.0 |
| 20260509013017 | 74 | 55 | 4.0 | 7.0 | 0.00 | 0.00 | 0.00 | 63 | 1009.0 |
| 20260509011517 | 74 | 119 | 2.0 | 8.0 | 0.00 | 0.00 | 0.00 | 62 | 1009.0 |
| 20260509010016 | 75 | 65 | 3.0 | 6.0 | 0.00 | 0.00 | 0.00 | 61 | 1009.0 |
| 20260509004517 | 75 | 93 | 3.0 | 8.0 | 0.00 | 0.00 | 0.00 | 61 | 1009.0 |
| 20260509003028 | 75 | 92 | 1.0 | 7.0 | 0.00 | 0.00 | 0.00 | 61 | 1009.0 |
| 20260509001516 | 75 | 44 | 4.0 | 8.0 | 0.00 | 0.00 | 0.00 | 61 | 1009.1 |
| 20260509000013 | 75 | 68 | 4.0 | 9.0 | 0.00 | 0.00 | 0.00 | 61 | 1009.2 |
| 20260508234512 | 76 | 79 | 3.0 | 12.0 | 0.00 | 0.00 | 0.00 | 60 | 1009.3 |
| 20260508233013 | 76 | 41 | 6.0 | 10.0 | 0.00 | 0.00 | 0.00 | 60 | 1009.2 |
| 20260508231511 | 76 | 111 | 4.0 | 10.0 | 0.00 | 0.00 | 0.00 | 59 | 1009.2 |
| 20260508230017 | 77 | 45 | 4.0 | 10.0 | 0.00 | 0.00 | 0.00 | 58 | 1009.3 |
| 20260508224509 | 78 | 9 | 6.0 | 11.0 | 0.00 | 0.00 | 0.00 | 57 | 1009.4 |
| 20260508223010 | 78 | 71 | 6.0 | 12.0 | 0.00 | 0.00 | 0.00 | 57 | 1009.4 |
| 20260508221507 | 78 | 31 | 4.0 | 12.0 | 0.00 | 0.00 | 0.00 | 57 | 1009.5 |
| 20260508220005 | 79 | 46 | 6.0 | 12.0 | 0.00 | 0.00 | 0.00 | 56 | 1009.7 |
| 20260508214513 | 80 | 51 | 9.0 | 13.0 | 0.00 | 0.00 | 0.00 | 54 | 1009.7 |
| 20260508213004 | 80 | 14 | 7.0 | 12.0 | 0.00 | 0.00 | 0.00 | 53 | 1009.7 |
| 20260508211505 | 80 | 44 | 4.0 | 10.0 | 0.00 | 0.00 | 0.00 | 53 | 1009.7 |
| 20260508210001 | 80 | 60 | 5.0 | 9.0 | 0.00 | 0.00 | 0.00 | 53 | 1009.7 |
| 20260508204600 | 80 | 24 | 4.0 | 12.0 | 0.00 | 0.00 | 0.00 | 53 | 1009.9 |
| 20260508203106 | 80 | 355 | 4.0 | 11.0 | 0.00 | 0.00 | 0.00 | 52 | 1010.0 |
| 20260508201602 | 79 | 46 | 0.0 | 7.0 | 0.00 | 0.00 | 0.00 | 51 | 1010.0 |
| 20260508200053 | 79 | 46 | 4.0 | 8.0 | 0.00 | 0.00 | 0.00 | 52 | 1010.2 |
| 20260508194550 | 77 | 98 | 1.0 | 8.0 | 0.00 | 0.00 | 0.00 | 55 | 1010.4 |
| 20260508193046 | 76 | 355 | 0.0 | 6.0 | 0.00 | 0.00 | 0.00 | 59 | 1010.7 |
| 20260508191543 | 75 | 322 | 3.0 | 8.0 | 0.00 | 0.00 | 0.00 | 61 | 1010.9 |
| 20260508190038 | 74 | 322 | 3.0 | 5.0 | 0.00 | 0.00 | 0.00 | 64 | 1011.0 |
| 20260508184535 | 72 | 254 | 1.0 | 5.0 | 0.00 | 0.00 | 0.00 | 67 | 1011.2 |
| 20260508183035 | 70 | 5 | 0.0 | 6.0 | 0.00 | 0.00 | 0.00 | 69 | 1011.4 |
| 20260508181533 | 69 | 53 | 0.0 | 5.0 | 0.00 | 0.00 | 0.00 | 72 | 1011.6 |
| 20260508180022 | 68 | 56 | 1.0 | 6.0 | 0.00 | 0.00 | 0.00 | 73 | 1011.8 |
| 20260508174518 | 67 | 64 | 0.0 | 7.0 | 0.00 | 0.00 | 0.00 | 76 | 1011.8 |
| 20260508173018 | 66 | 119 | 0.0 | 8.0 | 0.00 | 0.00 | 0.00 | 78 | 1011.9 |
| 20260508171523 | 65 | 5 | 3.0 | 6.0 | 0.00 | 0.00 | 0.00 | 79 | 1011.9 |
| 20260508170012 | 64 | 13 | 0.0 | 4.0 | 0.00 | 0.00 | 0.00 | 81 | 1012.0 |
| 20260508164507 | 63 | 196 | 0.0 | 3.0 | 0.00 | 0.00 | 0.00 | 84 | 1012.1 |
| 20260508163007 | 62 | 93 | 0.0 | 5.0 | 0.00 | 0.00 | 0.00 | 85 | 1012.2 |
| 20260508161502 | 61 | 46 | 0.0 | 4.0 | 0.00 | 0.00 | 0.00 | 86 | 1012.2 |
| 20260508160002 | 61 | 57 | 0.0 | 3.0 | 0.00 | 0.00 | 0.00 | 87 | 1012.3 |
| 20260508154504 | 60 | 275 | 0.0 | 0.0 | 0.00 | 0.00 | 0.00 | 87 | 1012.4 |
| 20260508153101 | 60 | 275 | 0.0 | 0.0 | 0.00 | 0.00 | 0.00 | 88 | 1012.4 |
| 20260508151601 | 60 | 275 | 0.0 | 0.0 | 0.00 | 0.00 | 0.00 | 88 | 1012.4 |
| 20260508150059 | 60 | 275 | 0.0 | 0.0 | 0.00 | 0.00 | 0.00 | 89 | 1012.5 |
| 20260508144558 | 59 | 275 | 0.0 | 3.0 | 0.00 | 0.00 | 0.00 | 89 | 1012.4 |
| 20260508143103 | 59 | 261 | 0.0 | 0.0 | 0.00 | 0.00 | 0.00 | 89 | 1012.3 |
| 20260508141616 | 59 | 261 | 0.0 | 3.0 | 0.00 | 0.00 | 0.00 | 90 | 1012.2 |
| 20260508140058 | 59 | 263 | 1.0 | 4.0 | 0.00 | 0.00 | 0.00 | 90 | 1012.2 |
| 20260508134617 | 59 | 263 | 0.0 | 0.0 | 0.00 | 0.00 | 0.00 | 90 | 1012.0 |
| 20260508133101 | 59 | 263 | 0.0 | 5.0 | 0.00 | 0.00 | 0.00 | 90 | 1011.9 |
| 20260508131557 | 59 | 258 | 1.0 | 5.0 | 0.00 | 0.00 | 0.00 | 90 | 1011.8 |
| 20260508130054 | 59 | 247 | 2.0 | 4.0 | 0.00 | 0.00 | 0.00 | 89 | 1011.8 |
| 20260508124600 | 59 | 288 | 0.0 | 0.0 | 0.00 | 0.00 | 0.00 | 89 | 1011.7 |
| 20260508123054 | 59 | 288 | 0.0 | 4.0 | 0.00 | 0.00 | 0.00 | 89 | 1011.5 |
| 20260508121600 | 59 | 263 | 2.0 | 4.0 | 0.00 | 0.00 | 0.00 | 89 | 1011.5 |
| 20260508120052 | 59 | 278 | 0.0 | 5.0 | 0.00 | 0.00 | 0.00 | 89 | 1011.5 |
| 20260508114551 | 59 | 284 | 0.0 | 5.0 | 0.00 | 0.00 | 0.00 | 89 | 1011.5 |
| 20260508113105 | 60 | 249 | 2.0 | 6.0 | 0.00 | 0.00 | 0.00 | 89 | 1011.5 |
| 20260508111556 | 60 | 256 | 1.0 | 5.0 | 0.00 | 0.00 | 0.00 | 89 | 1011.5 |
| 20260508110054 | 60 | 256 | 2.0 | 5.0 | 0.00 | 0.00 | 0.00 | 89 | 1011.5 |
| 20260508104551 | 60 | 303 | 3.0 | 5.0 | 0.00 | 0.00 | 0.00 | 89 | 1011.6 |
| 20260508103048 | 60 | 304 | 2.0 | 5.0 | 0.00 | 0.00 | 0.00 | 89 | 1011.8 |
| 20260508101549 | 60 | 305 | 0.0 | 0.0 | 0.00 | 0.00 | 0.00 | 89 | 1011.9 |
| 20260508100046 | 60 | 305 | 0.0 | 3.0 | 0.00 | 0.00 | 0.00 | 89 | 1011.8 |
| 20260508094545 | 60 | 307 | 0.0 | 4.0 | 0.00 | 0.00 | 0.00 | 88 | 1011.7 |
| 20260508093053 | 60 | 294 | 0.0 | 4.0 | 0.00 | 0.00 | 0.00 | 88 | 1011.6 |
| 20260508091550 | 60 | 259 | 1.0 | 4.0 | 0.00 | 0.00 | 0.00 | 88 | 1011.7 |
| 20260508090044 | 60 | 259 | 0.0 | 3.0 | 0.00 | 0.00 | 0.00 | 88 | 1011.7 |
| 20260508084541 | 60 | 216 | 0.0 | 5.0 | 0.00 | 0.00 | 0.00 | 88 | 1011.8 |
| 20260508083053 | 61 | 223 | 0.0 | 3.0 | 0.00 | 0.00 | 0.00 | 87 | 1011.9 |
| 20260508081538 | 61 | 223 | 1.0 | 5.0 | 0.00 | 0.00 | 0.00 | 87 | 1012.1 |
| 20260508080041 | 61 | 281 | 0.0 | 0.0 | 0.00 | 0.00 | 0.00 | 87 | 1012.3 |
| 20260508074546 | 61 | 267 | 0.0 | 4.0 | 0.00 | 0.00 | 0.00 | 87 | 1012.3 |
| 20260508073034 | 61 | 266 | 0.0 | 3.0 | 0.00 | 0.00 | 0.00 | 87 | 1012.3 |
| 20260508071532 | 61 | 266 | 0.0 | 5.0 | 0.00 | 0.00 | 0.00 | 87 | 1012.4 |
| 20260508070028 | 61 | 255 | 0.0 | 5.0 | 0.00 | 0.00 | 0.00 | 87 | 1012.5 |
| 20260508064527 | 61 | 255 | 1.0 | 5.0 | 0.00 | 0.00 | 0.00 | 87 | 1012.5 |
| 20260508063028 | 61 | 5 | 0.0 | 4.0 | 0.00 | 0.00 | 0.00 | 87 | 1012.6 |
| 20260508061527 | 61 | 5 | 0.0 | 3.0 | 0.00 | 0.00 | 0.00 | 87 | 1012.6 |
| 20260508060025 | 61 | 5 | 0.0 | 1.0 | 0.00 | 0.00 | 0.00 | 87 | 1012.6 |
| 20260508054525 | 61 | 5 | 0.0 | 2.0 | 0.00 | 0.00 | 0.00 | 87 | 1012.5 |
| 20260508053027 | 61 | 5 | 0.0 | 2.0 | 0.00 | 0.00 | 0.00 | 87 | 1012.6 |
| 20260508051527 | 61 | 5 | 0.0 | 4.0 | 0.00 | 0.00 | 0.00 | 87 | 1012.6 |
| 20260508050024 | 61 | 360 | 1.0 | 4.0 | 0.00 | 0.00 | 0.00 | 87 | 1012.6 |
| 20260508044523 | 61 | 355 | 1.0 | 4.0 | 0.00 | 0.00 | 0.00 | 86 | 1012.4 |
| 20260508043021 | 61 | 355 | 0.0 | 3.0 | 0.00 | 0.00 | 0.00 | 86 | 1012.3 |
| 20260508041521 | 61 | 355 | 2.0 | 4.0 | 0.00 | 0.00 | 0.00 | 85 | 1012.1 |
| 20260508040019 | 62 | 344 | 0.0 | 4.0 | 0.00 | 0.00 | 0.00 | 84 | 1011.8 |
| 20260508034522 | 62 | 355 | 3.0 | 5.0 | 0.00 | 0.00 | 0.00 | 82 | 1011.7 |